This demonstration page uses our WeatherBlox Daily Observations layout. Learn more.

Left ArrowRight Arrow

44.31136, -96.79839

Hourly Observations for May 3, 2022

Temp ( °F °C ) Dew Point ( °F °C ) Humidity (%) Winds ( mph kmh ) Pressure ( in mb ) Visibility ( mi km ) Precip ( " mm )
12:22 am 00:22 Cloudy 37 3 34 1 87 87 N 6 9 30.11 1020 10 16 0.00 0.00
12:34 am 00:34 Cloudy 37 3 34 1 87 87 N 12 19 30.11 1020 10 16 0.00 0.00
12:56 am 00:56 Cloudy 37 2.8 34 1.1 89 89 N 12 19 30.12 1020 10 16 0.00 0.00
1:56 am 01:56 Cloudy 36 2.2 33 0.6 89 89 N 12 19 30.13 1020 10 16 0.00 0.00
2:20 am 02:20 Cloudy 36 2 34 1 93 93 N 10 17 30.11 1020 10 16 0.00 0.00
2:56 am 02:56 Cloudy 36 2.2 33 0.6 89 89 N 9 15 30.13 1020 10 16 0.00 0.00
3:56 am 03:56 Cloudy 36 2.2 32 0 86 86 N 7 11 30.14 1021 10 16 0.00 0.00
4:56 am 04:56 Cloudy 36 2.2 32 0 86 86 NNE 12 19 30.14 1021 10 16 0.00 0.00
5:56 am 05:56 Cloudy 36 2.2 32 0 86 86 NNE 12 19 30.14 1021 10 16 0.00 0.00
6:56 am 06:56 Cloudy 36 2.2 32 0 86 86 NNE 9 15 30.14 1021 10 16 0.00 0.00
7:56 am 07:56 Cloudy 37 2.8 32 0 82 82 NNE 10 17 30.16 1022 10 16 0.00 0.00
8:56 am 08:56 Cloudy 39 3.9 33 0.6 79 79 NNE 12 19 30.17 1022 10 16 0.00 0.00
9:56 am 09:56 Cloudy 42 5.6 34 1.1 73 73 NNE 12 19 30.18 1022 10 16 0.00 0.00
10:41 am 10:41 Cloudy 45 7 32 0 61 61 ENE 10 17 30.14 1021 10 16 0.00 0.00
10:56 am 10:56 Cloudy 44 6.7 32 0 63 63 ENE 10 17 30.18 1022 10 16 0.00 0.00
11:56 am 11:56 Cloudy 46 7.8 32 0 58 58 NE 9 15 30.18 1022 10 16 0.00 0.00
12:20 pm 12:20 Mostly Cloudy 46 8 34 1 62 62 NE 10 17 30.12 1020 10 16 0.00 0.00
12:56 pm 12:56 Partly Cloudy 48 8.9 34 1.1 58 58 NE 10 17 30.17 1022 10 16 0.00 0.00
1:56 pm 13:56 Mostly Cloudy 50 10 35 1.7 57 57 NE 9 15 30.17 1022 10 16 0.00 0.00
2:56 pm 14:56 Partly Cloudy 51 10.6 35 1.7 54 54 VRB 3 6 30.16 1022 10 16 0.00 0.00
3:56 pm 15:56 Sunny 54 12.2 35 1.7 49 49 ESE 8 13 30.14 1021 10 16 0.00 0.00
4:56 pm 16:56 Sunny 54 12.2 34 1.1 47 47 ENE 5 7 30.14 1021 10 16 0.00 0.00
5:56 pm 17:56 Partly Cloudy 53 11.7 35 1.7 51 51 ENE 5 7 30.15 1021 10 16 0.00 0.00
6:56 pm 18:56 Sunny 54 12.2 34 1.1 47 47 ENE 7 11 30.14 1021 10 16 0.00 0.00
7:56 pm 19:56 Sunny 52 11.1 34 1.1 50 50 E 9 15 30.14 1021 10 16 0.00 0.00
8:56 pm 20:56 Clear 50 10 35 1.7 57 57 E 6 9 30.16 1021 10 16 0.00 0.00
9:56 pm 21:56 Clear 48 8.9 36 2.2 63 63 E 6 9 30.17 1022 10 16 0.00 0.00
10:56 pm 22:56 Clear 47 8.3 35 1.7 63 63 ENE 7 11 30.17 1022 10 16 0.00 0.00
11:56 pm 23:56 Clear 42 5.6 35 1.7 76 76 Calm 30.19 1022 10 16 0.00 0.00

Powered by AerisWeather